Theta_e
319 319 319 319 319 319 316 316 316 316 319 316 313 313 313 313 313 314 317 322 323 322 327 328 329 330 331 329 333 346 346 350 350 353 354 351 352 353 348 350 351 351 351 351 351
320 319 319 319 319 319 319 316 316 316 316 320 316 313 313 313 313 314 319 320 322 322 323 326 329 331 328 330 332 343 344 346 347 347 351 350 348 348 349 349 350 352 350 351 350
320 320 319 319 319 319 319 318 317 316 315 317 321 314 313 313 314 317 318 320 322 321 322 324 326 327 328 330 342 344 344 344 347 347 349 349 349 349 346 343 351 351 350 350 350
320 320 320 320 319 319 318 319 317 318 316 316 320 318 313 313 316 321 321 319 322 322 322 323 324 329 326 328 332 345 342 344 345 347 349 350 349 347 343 343 351 351 350 351 351
319 320 320 320 319 319 319 318 318 318 316 315 319 320 313 313 316 323 321 320 321 322 322 323 324 329 328 329 332 341 344 343 343 345 347 348 349 347 346 349 351 353 352 352 351
319 319 320 320 319 320 319 318 319 318 317 315 318 321 313 312 316 323 322 322 321 322 323 323 330 327 327 329 332 336 339 339 340 341 347 350 350 350 346 352 350 353 353 353 352
318 319 319 320 320 319 319 318 318 318 316 315 318 321 316 317 319 321 323 324 321 321 322 322 325 326 328 328 332 334 337 335 335 340 348 350 351 349 343 353 350 350 351 351 352
317 318 319 319 320 319 319 318 317 317 315 315 319 320 320 317 318 322 322 323 325 321 320 321 323 325 326 330 332 334 334 336 335 338 349 342 351 347 345 353 353 351 350 350 351
316 317 318 319 320 319 319 317 316 315 314 317 320 318 320 319 318 322 321 324 326 327 321 324 326 327 330 331 331 331 336 336 336 337 346 340 345 344 348 352 353 353 352 351 350
315 316 317 319 319 319 318 315 314 315 316 319 318 321 323 322 321 320 321 322 322 327 327 325 326 326 324 327 333 335 333 334 336 339 342 341 345 345 353 354 353 351 348 345 349
316 316 317 318 319 319 317 315 317 318 318 320 320 321 323 323 323 321 320 322 321 324 324 327 326 327 327 328 330 331 333 333 338 342 343 340 347 346 354 347 347 353 350 349 350
316 316 317 318 319 319 318 315 322 319 320 324 324 324 325 325 324 322 320 321 321 322 324 324 326 326 327 328 331 331 333 333 338 339 338 348 349 351 354 355 354 354 353 351 351
316 316 317 318 319 319 319 317 321 323 318 323 326 327 326 326 325 322 320 320 321 322 324 324 327 327 328 328 330 330 331 336 338 340 344 348 348 348 353 354 354 353 352 351 350
316 317 319 318 318 319 319 323 321 320 318 321 325 325 327 325 324 323 319 321 321 321 323 325 325 327 328 328 328 330 331 333 338 336 339 343 351 346 345 353 352 352 352 350 348
316 320 322 319 320 319 323 322 319 321 316 322 325 327 327 325 320 321 320 321 320 322 323 325 327 327 327 328 330 330 331 332 335 334 334 341 347 344 343 352 350 350 349 348 347
317 321 322 320 319 322 323 321 321 321 319 328 327 325 323 323 321 320 320 321 322 321 321 323 324 326 326 328 328 329 329 325 324 326 337 339 341 342 341 342 349 348 348 347 346
320 320 321 321 320 321 323 321 321 325 323 328 328 324 322 321 322 319 319 319 319 320 319 319 320 321 325 325 325 325 323 326 328 328 332 339 342 337 338 340 344 347 347 346 344
321 320 322 321 320 323 323 320 326 322 325 323 324 322 322 318 319 318 318 318 318 318 316 320 321 322 323 323 324 324 323 324 330 331 337 338 341 338 337 338 340 342 346 346 342
322 324 321 321 322 323 323 322 322 324 326 325 322 325 324 321 318 318 316 316 317 317 319 318 321 322 324 325 325 327 326 323 325 328 336 337 339 336 338 338 338 339 340 345 346
325 326 323 320 323 323 319 320 322 323 324 324 327 323 323 321 319 316 315 317 319 318 319 321 322 322 323 325 325 325 324 331 325 334 339 340 343 341 339 339 342 341 340 343 347
329 327 320 321 323 323 319 319 322 324 324 324 324 325 323 321 317 314 316 318 320 320 319 317 319 322 323 323 322 323 327 325 325 328 335 337 338 335 338 339 342 342 345 346 346
327 326 321 322 319 316 318 320 322 321 321 320 322 323 328 324 326 318 317 318 322 320 320 317 316 320 321 320 321 324 323 327 327 331 331 333 337 336 335 339 341 341 344 346 346
327 323 323 322 317 317 317 320 322 322 321 322 325 325 327 331 330 321 320 321 321 320 320 317 317 320 321 319 325 326 323 324 324 329 336 336 335 335 336 339 340 341 341 343 346
328 321 321 320 320 319 321 321 324 325 324 324 324 328 331 333 332 334 335 333 331 323 327 322 313 319 323 320 326 332 332 327 323 326 329 334 332 337 337 338 339 341 341 341 342
329 329 324 319 319 318 319 321 325 327 328 332 334 336 334 333 334 334 336 332 331 331 326 319 319 316 317 320 328 330 331 331 331 327 333 332 333 330 337 337 338 341 341 342 344
327 326 326 325 327 329 318 329 334 334 334 335 335 334 334 334 333 333 335 332 332 331 328 318 318 321 326 327 330 330 335 332 335 335 336 338 334 337 338 338 339 339 340 340 345
322 324 326 325 327 330 331 332 331 331 335 333 334 333 333 334 334 334 332 333 332 332 331 328 314 316 321 325 329 329 337 339 335 336 337 337 335 338 338 338 337 339 340 340 340
Wind_Speed
12 10 10 9 10 9 8 7 7 7 8 8 8 9 11 12 14 18 21 11 9 11 9 5 7 8 14 2 7 1 3 3 5 7 4 16 9 15 7 4 2 15 9 20 34
12 11 10 9 9 9 9 8 7 7 7 7 7 7 9 11 14 20 14 13 13 11 11 9 9 13 6 2 5 4 2 4 5 7 10 21 16 16 7 9 4 11 14 29 34
13 12 10 10 9 9 9 9 7 7 7 7 6 6 7 9 11 4 7 14 15 13 13 9 8 7 4 3 7 6 4 6 8 11 18 17 11 10 9 3 13 27 34 36 38
13 13 11 10 10 9 9 9 8 6 6 7 6 6 6 5 1 3 2 13 14 14 15 9 5 4 3 4 1 3 16 12 8 14 13 10 11 9 14 3 21 29 36 42 40
14 13 12 11 10 9 9 9 9 7 6 7 7 6 6 5 7 4 6 5 16 16 14 9 4 3 3 7 14 7 7 11 4 21 19 15 8 5 2 12 25 32 36 39 40
15 13 12 12 10 10 9 9 8 7 6 7 7 7 6 4 7 8 4 5 12 16 12 12 2 2 6 6 4 8 9 7 12 16 19 11 7 1 4 26 29 36 33 36 38
16 14 13 12 10 9 9 10 8 6 5 6 7 8 11 14 6 12 7 4 11 11 13 13 9 6 9 6 6 14 3 3 3 9 6 19 3 1 13 27 34 30 33 33 35
16 15 14 12 10 9 9 9 7 4 5 6 7 7 9 3 13 13 10 7 8 11 10 8 7 9 5 8 7 5 5 3 3 7 12 6 5 4 22 29 25 27 27 29 34
17 15 14 13 10 8 7 6 5 4 5 6 5 6 9 6 14 14 9 7 7 6 7 5 3 4 3 3 5 6 1 3 8 6 8 4 3 6 23 24 21 25 26 27 30
18 15 13 12 10 7 5 3 3 3 5 6 9 5 6 3 5 15 13 9 2 4 4 5 5 1 3 4 3 2 4 5 7 2 4 4 2 8 19 18 18 20 22 20 23
18 16 13 11 9 6 4 3 2 3 11 9 2 4 7 3 1 14 16 11 5 3 4 3 3 5 7 5 6 4 2 9 7 3 3 4 7 9 12 9 11 14 20 19 13
19 16 12 10 8 8 6 5 4 3 8 15 22 25 22 19 6 11 19 8 5 4 4 4 6 9 2 4 3 4 4 10 5 5 4 4 12 7 7 3 10 15 14 10 12
19 16 11 9 8 9 9 6 4 8 3 9 15 16 15 8 8 12 15 12 4 5 5 7 5 4 3 4 4 8 4 5 6 3 4 8 5 5 3 6 9 11 11 11 14
20 16 10 7 6 9 4 3 9 9 4 6 5 8 12 7 4 14 19 14 1 9 7 5 5 4 5 6 6 7 6 9 9 4 4 4 3 4 4 4 7 14 14 15 16
20 15 9 9 4 9 9 4 11 4 2 3 4 2 14 12 3 9 22 16 7 5 7 7 3 5 6 13 3 10 6 7 4 5 3 3 5 6 3 7 9 14 16 17 18
19 13 8 10 13 10 3 7 8 5 5 2 5 6 5 4 1 8 14 9 7 2 1 7 1 5 7 6 7 10 3 6 4 4 2 3 4 4 6 10 5 9 18 20 19
15 8 8 11 8 10 6 15 4 3 6 3 4 4 3 4 2 3 6 6 5 4 4 6 5 4 4 5 2 4 5 3 3 4 4 2 2 8 6 4 8 16 23 21 19
9 4 5 10 10 11 9 4 3 3 6 5 3 4 6 5 4 3 4 4 1 5 3 5 7 5 5 8 10 6 8 6 4 3 3 3 4 3 5 12 12 17 27 23 23
6 5 2 11 14 10 7 2 6 4 4 7 3 4 2 3 4 4 7 7 8 8 8 5 6 4 2 2 7 2 3 3 7 3 3 3 6 9 8 9 15 19 21 29 27
5 4 5 13 12 8 4 4 4 4 7 5 5 1 5 2 4 7 9 6 6 11 9 5 2 4 5 3 0 5 6 3 3 4 3 4 5 6 6 8 8 9 24 33 32
4 4 5 15 11 3 3 6 5 6 13 7 5 4 7 7 9 5 7 5 11 7 12 6 4 7 3 3 5 3 1 5 5 5 5 2 6 8 11 10 10 10 26 37 35
3 3 8 16 4 2 2 5 4 4 17 7 5 8 5 3 4 9 11 11 23 13 11 9 5 6 11 6 3 4 9 6 5 6 1 4 7 4 9 10 19 21 30 34 35
4 5 11 8 2 2 5 5 4 5 5 5 4 4 1 2 1 2 2 9 14 10 11 8 3 3 11 8 2 4 4 4 6 4 6 6 7 3 5 9 15 21 19 27 34
3 3 4 7 4 4 2 6 3 12 7 6 5 3 3 4 3 2 7 4 13 9 7 19 5 8 10 8 4 3 2 2 6 4 4 7 11 3 6 12 12 16 18 15 28
3 1 2 3 5 6 4 3 6 4 2 5 0 4 3 3 1 4 2 6 5 14 4 10 10 8 7 5 6 6 5 5 4 6 6 7 9 7 14 16 20 23 21 16 16
3 4 3 2 5 2 5 1 3 4 1 5 4 2 2 1 6 4 4 3 3 8 7 4 4 5 3 4 7 3 4 4 3 3 6 1 6 5 2 6 15 17 19 17 11
4 1 2 3 3 2 3 4 4 3 5 3 3 4 5 3 2 9 8 8 1 2 3 3 5 3 5 1 2 4 2 2 2 3 4 4 8 2 3 6 4 13 14 18 19
Wind_Direction
336 333 334 337 339 343 336 310 285 269 269 267 263 266 271 268 263 261 253 237 238 238 253 271 300 318 319 278 183 145 25 145 191 153 201 199 171 175 185 182 174 181 191 179 165
335 328 325 327 331 335 336 327 303 279 264 264 269 271 276 281 279 262 258 239 236 238 245 269 316 333 331 258 168 141 193 221 163 165 183 174 170 170 162 165 225 210 165 161 169
332 328 320 316 320 325 326 328 310 288 269 261 267 276 282 299 310 271 226 216 215 228 244 264 312 341 308 256 170 194 212 228 178 165 182 177 165 159 158 200 207 167 155 172 178
333 328 318 311 310 313 317 320 314 283 263 252 256 271 278 298 217 63 157 196 197 209 229 251 283 351 302 318 239 183 236 252 141 167 156 159 149 168 193 235 194 177 173 173 183
336 331 324 312 300 301 306 308 312 290 263 243 245 258 275 266 243 155 82 175 186 203 215 226 290 263 337 297 333 178 213 243 151 181 171 156 144 173 166 146 169 161 170 177 187
334 330 325 316 296 295 301 304 307 287 261 238 237 250 253 255 206 187 147 143 186 209 211 218 154 41 307 309 346 313 251 197 232 165 182 129 141 140 145 150 147 163 168 181 191
335 329 322 319 304 290 296 302 303 279 248 232 233 249 261 240 198 188 195 166 203 216 224 229 249 289 322 303 310 308 335 60 267 157 124 112 37 260 165 159 163 163 178 185 195
333 327 319 315 305 288 291 300 293 263 229 220 231 256 255 206 216 190 198 191 195 201 228 250 251 285 253 306 308 354 48 20 267 137 165 115 228 242 167 165 163 176 180 189 201
333 326 318 312 305 287 290 295 273 229 209 218 234 250 265 245 217 199 205 188 191 181 207 203 289 255 298 51 1 4 59 278 312 180 151 171 220 199 174 174 166 183 191 198 201
333 325 318 309 302 281 283 258 238 208 204 221 240 292 257 28 228 200 195 206 198 179 210 203 200 103 39 71 231 6 344 347 280 221 51 89 154 169 186 176 172 186 196 202 210
331 325 316 306 294 265 236 172 185 248 226 216 203 244 306 343 117 200 200 208 225 128 147 136 96 233 230 182 211 276 287 311 264 64 113 150 168 178 186 144 148 187 214 225 232
330 323 312 299 279 250 226 205 145 18 295 254 252 258 257 267 295 215 203 192 164 168 129 27 204 235 244 251 288 298 311 289 301 236 134 113 49 73 128 150 176 197 211 219 213
328 321 307 288 265 239 225 222 229 304 317 280 235 241 244 216 210 221 188 188 144 155 162 173 211 143 197 295 301 287 233 237 210 75 47 108 22 17 15 138 192 213 230 224 214
327 318 297 267 254 225 171 122 227 246 45 269 220 244 199 181 249 218 196 177 178 182 150 230 266 248 288 276 174 282 233 246 244 112 203 70 223 298 281 223 203 198 200 197 200
326 313 278 226 219 161 141 47 125 120 356 189 198 168 168 170 146 185 183 197 162 169 112 236 199 187 216 237 148 246 309 241 239 116 72 29 96 267 175 226 223 211 200 193 188
322 305 260 224 221 157 151 147 136 45 257 235 141 161 112 192 117 154 179 192 219 174 129 225 292 177 221 267 203 259 212 34 56 106 84 205 136 255 194 215 204 211 213 195 186
318 293 244 211 195 189 158 149 59 152 323 187 179 145 122 152 212 111 144 156 159 128 294 336 278 254 194 282 185 128 57 347 1 14 212 350 49 236 202 188 196 198 211 195 185
330 301 239 196 167 159 158 67 172 234 257 298 120 86 163 147 204 136 97 193 246 99 108 182 316 186 172 188 225 200 164 150 201 195 244 45 240 236 197 188 199 195 212 200 188
357 358 161 176 169 158 168 99 212 225 328 342 33 97 242 217 157 127 181 195 205 167 177 155 269 295 143 201 144 242 197 194 102 40 78 250 292 302 175 195 200 195 210 197 195
12 45 102 164 167 151 81 239 248 241 323 21 52 67 197 217 162 154 177 200 217 182 161 216 301 259 294 206 330 168 163 89 5 127 230 282 273 238 244 190 180 214 185 189 194
39 66 99 149 150 145 164 241 275 286 357 354 335 268 212 204 170 191 213 261 202 192 163 147 127 259 100 191 224 347 336 45 116 125 167 211 261 211 209 191 171 169 171 182 191
67 61 138 149 71 41 178 205 305 309 307 263 214 219 263 230 240 197 201 216 203 151 168 184 164 234 232 249 244 206 208 154 134 228 150 156 271 217 204 174 167 171 173 185 192
86 89 159 181 152 267 280 271 244 264 228 227 252 231 290 147 263 242 244 255 228 162 183 170 225 295 326 348 16 214 222 145 113 100 191 147 262 357 136 178 196 167 171 183 195
121 89 138 220 259 158 262 269 264 316 253 224 262 233 112 20 15 17 342 325 335 208 219 152 144 175 219 206 179 280 247 130 119 117 182 219 248 237 203 189 216 155 170 171 192
48 69 126 216 273 231 162 296 331 314 307 334 281 29 183 131 352 35 322 313 358 5 121 157 203 175 232 225 192 221 219 158 185 175 160 266 219 204 207 189 196 178 162 169 178
37 36 357 267 292 313 157 188 228 283 217 333 83 35 94 238 194 195 148 340 89 328 15 327 219 136 225 199 215 251 68 94 136 105 276 292 289 237 19 148 169 182 170 178 184
30 2 291 280 323 100 212 236 255 248 206 244 311 348 36 1 314 353 94 106 61 94 311 353 132 103 214 189 163 316 209 218 266 171 147 182 229 185 84 115 109 110 174 180 191